{"data":{"norad_id":49161,"intl_designator":"2021-082AH","name":"STARLINK-3080","alt_names":[],"object_type":"PAYLOAD","status":"ACTIVE","operator":null,"country":"US","launch_date":"2021-09-14","launch_site_code":"AFWTR","launch_vehicle":null,"mission":null,"orbit_class":"UNKNOWN","rcs_meters":null,"size_class":null,"mass_kg":null,"dimensions":null,"purposes":["comms"],"wikipedia_slug":null,"has_3d_model":false,"image_url":null,"decayed_at":null,"tle_current":{"epoch":"2026-09-20T03:39:24.864768Z","epoch_age_seconds":70020,"freshness":"FRESH","line1":"1 49161U 21082AH  26263.15237112  .00000622  00000+0  59899-4 0  9998","line2":"2 49161  70.0000 164.1261 0002866 268.4253  91.6578 14.98330352276181","mean_motion":14.98330352,"eccentricity":0.0002866,"inclination_deg":70,"raan_deg":164.1261,"arg_perigee_deg":268.4253,"mean_anomaly_deg":91.6578,"bstar":5.9899e-5,"rev_number":27618,"period_min":96.106976547452,"perigee_km":570.06287744309,"apogee_km":574.04672738424,"semimajor_km":6950.1918024137,"source":"CELESTRAK","updated_at":"2026-09-20T09:00:39.251907Z"}}}